,,,PA_Meas_PMT16A,,PR_Meas_QMR101_102,,RH_Meas_QMH101,,SR_Meas_QMS101,,TA_Meas_QMH101,,GenWind,,GenWind,
date,time,status,PA,status,PR,status,RH,status,SR,status,TA,status,DirAvg,status,SpdAvg,
2011-05-23, 00:00:04,VALID,1003.33,VALID,0,INVALID,111.664,VALID,0,VALID,26.5641,VALID,112,VALID,0.943359,
2011-05-23, 00:01:04,VALID,1003.37,VALID,0,INVALID,113.777,VALID,0,VALID,26.5661,VALID,111,VALID,1.39102,
2011-05-23, 00:02:04,VALID,1003.32,VALID,0,INVALID,112.404,VALID,0,VALID,26.5661,VALID,97,VALID,1.5832,
2011-05-23, 00:03:04,VALID,1003.35,VALID,0,INVALID,118.034,VALID,0,VALID,26.5466,VALID,94,VALID,1.06055,
2011-05-23, 00:04:04,VALID,1003.32,VALID,0,INVALID,117.721,VALID,0,VALID,26.5466,VALID,81,VALID,1.4625,
2011-05-23, 00:05:04,VALID,1003.26,VALID,0,INVALID,118.652,VALID,0,VALID,26.5251,VALID,106,VALID,1.65313,
2011-05-23, 00:06:04,VALID,1003.22,VALID,0,INVALID,123.618,VALID,0,VALID,26.5271,VALID,93,VALID,0.667969,
2011-05-23, 00:07:04,VALID,1003.24,VALID,0,INVALID,128.92,VALID,0,VALID,26.4861,VALID,94,VALID,1.29531,
2011-05-23, 00:08:04,VALID,1003.18,VALID,0,INVALID,136.87,VALID,0,VALID,26.4472,VALID,89,VALID,1.11367,
2011-05-23, 00:09:04,VALID,1003.17,VALID,0,INVALID,152.578,VALID,0,VALID,26.4082,VALID,104,VALID,1.09805,
2011-05-23, 00:10:04,VALID,1003.13,VALID,0,INVALID,163.502,VALID,0,VALID,26.4082,VALID,110,VALID,2.28125,
2011-05-23, 00:11:04,VALID,1003.14,VALID,0,INVALID,163.533,VALID,0,VALID,26.4297,VALID,120,VALID,1.17031,
2011-05-23, 00:12:04,VALID,1003.13,VALID,0,INVALID,163.556,VALID,0,VALID,26.3887,VALID,72,VALID,1.23906,
2011-05-23, 00:13:04,VALID,1003.08,VALID,0,INVALID,163.548,VALID,0,VALID,26.3693,VALID,85,VALID,1.675,
2011-05-23, 00:14:04,VALID,1003.06,VALID,0,INVALID,163.563,VALID,0,VALID,26.3693,VALID,120,VALID,1.2543,
2011-05-23, 00:15:04,VALID,1003.05,VALID,0,INVALID,163.556,VALID,0,VALID,26.3907,VALID,87,VALID,1.95195,
2011-05-23, 00:16:04,VALID,1003.04,VALID,0,INVALID,163.571,VALID,0,VALID,26.3498,VALID,105,VALID,0.843359,
2011-05-23, 00:17:04,VALID,1003.03,VALID,0,INVALID,163.578,VALID,0,VALID,26.3128,VALID,95,VALID,0.276563,
2011-05-23, 00:18:04,VALID,1003,VALID,0,INVALID,163.563,VALID,0,VALID,26.2719,VALID,129,VALID,1.2125,
2011-05-23, 00:19:04,VALID,1003.01,VALID,0,INVALID,163.571,VALID,0,VALID,26.3303,VALID,116,VALID,0.937109,
2011-05-23, 00:20:04,VALID,1003.01,VALID,0,INVALID,163.54,VALID,0,VALID,26.3108,VALID,82,VALID,0.724219,
2011-05-23, 00:21:04,VALID,1002.99,VALID,0,INVALID,163.533,VALID,0,VALID,26.2913,VALID,119,VALID,0.760547,
2011-05-23, 00:22:04,VALID,1002.99,VALID,0,INVALID,163.563,VALID,0,VALID,26.3303,VALID,97,VALID,1.77969,
2011-05-23, 00:23:04,VALID,1003,VALID,0,INVALID,163.548,VALID,0,VALID,26.3498,VALID,132,VALID,1.43984,
2011-05-23, 00:24:04,VALID,1002.98,VALID,0,INVALID,163.54,VALID,0,VALID,26.3693,VALID,100,VALID,1.29375,
2011-05-23, 00:25:04,VALID,1002.95,VALID,0,INVALID,163.54,VALID,0,VALID,26.4082,VALID,90,VALID,1.15117,
2011-05-23, 00:26:04,VALID,1002.92,VALID,0,INVALID,162.221,VALID,0,VALID,26.3887,VALID,146,VALID,2.61758,
2011-05-23, 00:27:04,VALID,1002.94,VALID,0,INVALID,161.885,VALID,0,VALID,26.4492,VALID,79,VALID,0.973047,
2011-05-23, 00:28:04,VALID,1002.92,VALID,0,INVALID,163.502,VALID,0,VALID,26.4277,VALID,58,VALID,0.546875,
2011-05-23, 00:29:04,VALID,1002.89,VALID,0,INVALID,163.548,VALID,0,VALID,26.3907,VALID,64,VALID,0.691797,
2011-05-23, 00:30:04,VALID,1002.9,VALID,0,INVALID,163.571,VALID,0,VALID,26.3518,VALID,39,VALID,0.254687,
2011-05-23, 00:31:04,VALID,1002.9,VALID,0,INVALID,163.571,VALID,0,VALID,26.2719,VALID,77,VALID,0.563281,
2011-05-23, 00:32:04,VALID,1002.88,VALID,0,INVALID,163.556,VALID,0,VALID,26.2544,VALID,65,VALID,0.715625,
2011-05-23, 00:33:04,VALID,1002.9,VALID,0,INVALID,163.563,VALID,0,VALID,26.2154,VALID,81,VALID,0.623828,
2011-05-23, 00:34:04,VALID,1002.91,VALID,0,INVALID,163.556,VALID,0,VALID,26.1959,VALID,72,VALID,0.880859,
2011-05-23, 00:35:04,VALID,1002.89,VALID,0,INVALID,163.563,VALID,0,VALID,26.1745,VALID,96,VALID,0.826172,
2011-05-23, 00:36:04,VALID,1002.87,VALID,0,INVALID,163.578,VALID,0,VALID,26.1959,VALID,58,VALID,0.824219,
2011-05-23, 00:37:04,VALID,1002.87,VALID,0,INVALID,163.578,VALID,0,VALID,26.1959,VALID,98,VALID,1.41211,
2011-05-23, 00:38:04,VALID,1002.87,VALID,0,INVALID,163.563,VALID,0,VALID,26.1959,VALID,67,VALID,0.686719,
2011-05-23, 00:39:04,VALID,1002.85,VALID,0,INVALID,163.571,VALID,0,VALID,26.155,VALID,110,VALID,0.696875,
2011-05-23, 00:40:04,VALID,1002.87,VALID,0,INVALID,163.578,VALID,0,VALID,26.118,VALID,104,VALID,0.582422,
2011-05-23, 00:41:04,VALID,1002.84,VALID,0,INVALID,163.563,VALID,0,VALID,26.0966,VALID,89,VALID,0.903906,
2011-05-23, 00:42:04,VALID,1002.84,VALID,0,INVALID,163.563,VALID,0,VALID,26.0985,VALID,58,VALID,1.18867,
2011-05-23, 00:43:04,VALID,1002.83,VALID,0,INVALID,163.578,VALID,0,VALID,26.118,VALID,84,VALID,0.685938,
2011-05-23, 00:44:04,VALID,1002.82,VALID,0,INVALID,163.601,VALID,0,VALID,26.118,VALID,87,VALID,1.22852,
2011-05-23, 00:45:04,VALID,1002.81,VALID,0,INVALID,163.601,VALID,0,VALID,26.0985,VALID,92,VALID,0.916406,
2011-05-23, 00:46:04,VALID,1002.83,VALID,0,INVALID,163.586,VALID,0,VALID,26.118,VALID,92,VALID,1.57773,
2011-05-23, 00:47:04,VALID,1002.79,VALID,0,INVALID,163.571,VALID,0,VALID,26.1375,VALID,108,VALID,1.0668,
2011-05-23, 00:48:04,VALID,1002.77,VALID,0,INVALID,163.578,VALID,0,VALID,26.157,VALID,83,VALID,0.795313,
2011-05-23, 00:49:04,VALID,1002.76,VALID,0,INVALID,163.571,VALID,0,VALID,26.1375,VALID,113,VALID,0.459766,
2011-05-23, 00:50:04,VALID,1002.78,VALID,0,INVALID,163.594,VALID,0,VALID,26.1395,VALID,100,VALID,0.773047,
2011-05-23, 00:51:04,VALID,1002.78,VALID,0,INVALID,163.594,VALID,0,VALID,26.1375,VALID,95,VALID,1.34453,
2011-05-23, 00:52:04,VALID,1002.75,VALID,0,INVALID,163.556,VALID,0,VALID,26.157,VALID,122,VALID,1.46641,
2011-05-23, 00:53:04,VALID,1002.76,VALID,0,INVALID,163.571,VALID,0,VALID,26.1355,VALID,119,VALID,1.05,
2011-05-23, 00:54:04,VALID,1002.78,VALID,0,INVALID,163.571,VALID,0,VALID,26.1375,VALID,108,VALID,1.11758,
2011-05-23, 00:55:04,VALID,1002.73,VALID,0,INVALID,163.571,VALID,0,VALID,26.118,VALID,130,VALID,1.05586,
2011-05-23, 00:56:04,VALID,1002.73,VALID,0,INVALID,163.578,VALID,0,VALID,26.0791,VALID,112,VALID,0.734375,
2011-05-23, 00:57:04,VALID,1002.7,VALID,0,INVALID,163.594,VALID,0,VALID,26.0791,VALID,132,VALID,2.01797,
2011-05-23, 00:58:04,VALID,1002.7,VALID,0,INVALID,163.578,VALID,0,VALID,26.0576,VALID,71,VALID,0.412891,
2011-05-23, 00:59:04,VALID,1002.72,VALID,0,INVALID,163.601,VALID,0,VALID,26.0596,VALID,85,VALID,1.26992,
2011-05-23, 01:00:04,VALID,1002.71,VALID,0,INVALID,163.594,VALID,0,VALID,26.0401,VALID,98,VALID,0.540234,
2011-05-23, 01:01:04,VALID,1002.74,VALID,0,INVALID,163.594,VALID,0,VALID,25.9797,VALID,89,VALID,0.455078,
2011-05-23, 01:02:04,VALID,1002.73,VALID,0,INVALID,163.586,VALID,0,VALID,25.9797,VALID,106,VALID,0.804688,
2011-05-23, 01:03:04,VALID,1002.73,VALID,0,INVALID,163.601,VALID,0,VALID,25.9622,VALID,104,VALID,0.395703,
2011-05-23, 01:04:04,VALID,1002.74,VALID,0,INVALID,163.594,VALID,0,VALID,25.9213,VALID,103,VALID,0.564062,
2011-05-23, 01:05:04,VALID,1002.72,VALID,0,INVALID,163.594,VALID,0,VALID,25.9018,VALID,130,VALID,1.51523,
2011-05-23, 01:06:04,VALID,1002.7,VALID,0,INVALID,163.586,VALID,0,VALID,25.9213,VALID,143,VALID,0.859375,
2011-05-23, 01:07:04,VALID,1002.67,VALID,0,INVALID,163.578,VALID,0,VALID,25.9408,VALID,93,VALID,0.482031,
2011-05-23, 01:08:04,VALID,1002.66,VALID,0,INVALID,163.601,VALID,0.100563,VALID,25.9232,VALID,80,VALID,0.440625,
2011-05-23, 01:09:04,VALID,1002.61,VALID,0,INVALID,163.601,VALID,0,VALID,25.8434,VALID,73,VALID,0.265234,
2011-05-23, 01:10:04,VALID,1002.64,VALID,0,INVALID,163.617,VALID,0,VALID,25.8259,VALID,73,VALID,0.807813,
2011-05-23, 01:11:04,VALID,1002.6,VALID,0,INVALID,163.617,VALID,0,VALID,25.8044,VALID,91,VALID,1.34414,
2011-05-23, 01:12:04,VALID,1002.6,VALID,0,INVALID,163.586,VALID,0,VALID,25.8843,VALID,30,VALID,0.689844,
2011-05-23, 01:13:04,VALID,1002.62,VALID,0,INVALID,163.609,VALID,0,VALID,25.8843,VALID,52,VALID,0.797656,
2011-05-23, 01:14:04,VALID,1002.59,VALID,0,INVALID,163.617,VALID,0,VALID,25.8629,VALID,96,VALID,0.324219,
2011-05-23, 01:15:04,VALID,1002.59,VALID,0,INVALID,163.601,VALID,0,VALID,25.8843,VALID,32,VALID,0.604688,
2011-05-23, 01:16:04,VALID,1002.61,VALID,0,INVALID,163.594,VALID,0,VALID,25.8434,VALID,15,VALID,1.09687,
2011-05-23, 01:17:04,VALID,1002.6,VALID,0,INVALID,163.594,VALID,0,VALID,25.8044,VALID,58,VALID,0.506641,
2011-05-23, 01:18:04,VALID,1002.62,VALID,0,INVALID,163.586,VALID,0,VALID,25.8259,VALID,10,VALID,0.100391,
2011-05-23, 01:19:04,VALID,1002.6,VALID,0,INVALID,163.601,VALID,0,VALID,25.7869,VALID,85,VALID,0.285547,
2011-05-23, 01:20:04,VALID,1002.61,VALID,0,INVALID,163.624,VALID,0,VALID,25.7674,VALID,33,VALID,1.00156,
2011-05-23, 01:21:04,VALID,1002.61,VALID,0,INVALID,163.586,VALID,0,VALID,25.746,VALID,35,VALID,0.725391,
2011-05-23, 01:22:04,VALID,1002.6,VALID,0,INVALID,163.594,VALID,0,VALID,25.6876,VALID,25,VALID,0.567187,
2011-05-23, 01:23:04,VALID,1002.6,VALID,0,INVALID,163.609,VALID,0,VALID,25.6895,VALID,17,VALID,0.652734,
2011-05-23, 01:24:04,VALID,1002.61,VALID,0,INVALID,163.639,VALID,0,VALID,25.6097,VALID,17,VALID,0.773438,
2011-05-23, 01:25:04,VALID,1002.62,VALID,0,INVALID,163.617,VALID,0,VALID,25.6116,VALID,16,VALID,0.794531,
2011-05-23, 01:26:04,VALID,1002.58,VALID,0,INVALID,163.632,VALID,0,VALID,25.5532,VALID,13,VALID,0.661719,
2011-05-23, 01:27:04,VALID,1002.58,VALID,0,INVALID,163.601,VALID,0,VALID,25.5337,VALID,14,VALID,0.945313,
2011-05-23, 01:28:04,VALID,1002.52,VALID,0,INVALID,163.624,VALID,0,VALID,25.5123,VALID,353,VALID,1.36484,
2011-05-23, 01:29:04,VALID,1002.49,VALID,0,INVALID,163.632,VALID,0,VALID,25.5727,VALID,358,VALID,0.806641,
2011-05-23, 01:30:04,VALID,1002.46,VALID,0,INVALID,163.624,VALID,0,VALID,25.5707,VALID,25,VALID,0.880078,
2011-05-23, 01:31:04,VALID,1002.44,VALID,0,INVALID,163.624,VALID,0,VALID,25.5902,VALID,6,VALID,0.807813,
2011-05-23, 01:32:04,VALID,1002.39,VALID,0,INVALID,163.632,VALID,0,VALID,25.5707,VALID,7,VALID,1.16836,
2011-05-23, 01:33:04,VALID,1002.35,VALID,0,INVALID,163.624,VALID,0,VALID,25.5902,VALID,21,VALID,1.70039,
2011-05-23, 01:34:04,VALID,1002.34,VALID,0,INVALID,163.617,VALID,0,VALID,25.6292,VALID,12,VALID,1.07617,
2011-05-23, 01:35:04,VALID,1002.34,VALID,0,INVALID,163.609,VALID,0,VALID,25.6292,VALID,22,VALID,0.682813,
2011-05-23, 01:36:04,VALID,1002.32,VALID,0,INVALID,163.624,VALID,0,VALID,25.6506,VALID,24,VALID,0.441406,
2011-05-23, 01:37:04,VALID,1002.29,VALID,0,INVALID,163.609,VALID,0,VALID,25.5902,VALID,21,VALID,0.673047,
2011-05-23, 01:38:04,VALID,1002.25,VALID,0,INVALID,163.594,VALID,0,VALID,25.6116,VALID,21,VALID,0.353906,
2011-05-23, 01:39:04,VALID,1002.27,VALID,0,INVALID,163.632,VALID,0,VALID,25.5707,VALID,11,VALID,0.654297,
2011-05-23, 01:40:04,VALID,1002.25,VALID,0,INVALID,163.639,VALID,0,VALID,25.5727,VALID,13,VALID,0.606641,
2011-05-23, 01:41:04,VALID,1002.25,VALID,0,INVALID,163.601,VALID,0,VALID,25.5532,VALID,6,VALID,0.679688,
2011-05-23, 01:42:04,VALID,1002.23,VALID,0,INVALID,163.632,VALID,0,VALID,25.5337,VALID,357,VALID,0.666016,
2011-05-23, 01:43:04,VALID,1002.22,VALID,0,INVALID,163.617,VALID,0,VALID,25.5337,VALID,8,VALID,0.834375,
2011-05-23, 01:44:04,VALID,1002.22,VALID,0,INVALID,163.609,VALID,0,VALID,25.4734,VALID,2,VALID,0.813281,
2011-05-23, 01:45:04,VALID,1002.19,VALID,0,INVALID,163.647,VALID,0,VALID,25.4734,VALID,356,VALID,0.829687,
2011-05-23, 01:46:04,VALID,1002.18,VALID,0,INVALID,163.639,VALID,0,VALID,25.4149,VALID,353,VALID,0.513672,
2011-05-23, 01:47:04,VALID,1002.19,VALID,0,INVALID,163.67,VALID,0,VALID,25.3779,VALID,356,VALID,0.699609,
2011-05-23, 01:48:04,VALID,1002.19,VALID,0,INVALID,163.639,VALID,0,VALID,25.2592,VALID,4,VALID,0.540625,
2011-05-23, 01:49:04,VALID,1002.19,VALID,0,INVALID,163.647,VALID,0,VALID,25.2027,VALID,12,VALID,0.667578,
2011-05-23, 01:50:04,VALID,1002.17,VALID,0,INVALID,163.617,VALID,0,VALID,25.1423,VALID,355,VALID,0.956641,
2011-05-23, 01:51:04,VALID,1002.18,VALID,0,INVALID,163.655,VALID,0,VALID,25.1461,VALID,358,VALID,0.693359,
2011-05-23, 01:52:04,VALID,1002.18,VALID,0,INVALID,163.647,VALID,0,VALID,25.0839,VALID,1,VALID,1.49219,
2011-05-23, 01:53:04,VALID,1002.14,VALID,0,INVALID,163.655,VALID,0,VALID,25.0839,VALID,9,VALID,1.12812,
2011-05-23, 01:54:04,VALID,1002.16,VALID,0,INVALID,163.678,VALID,0,VALID,25.0644,VALID,24,VALID,0.525391,
2011-05-23, 01:55:04,VALID,1002.14,VALID,0,INVALID,163.662,VALID,0,VALID,25.0431,VALID,25,VALID,0.754687,
2011-05-23, 01:56:04,VALID,1002.13,VALID,0,INVALID,163.685,VALID,0,VALID,25.045,VALID,1,VALID,0.952734,
2011-05-23, 01:57:04,VALID,1002.09,VALID,0,INVALID,163.685,VALID,0,VALID,25.0255,VALID,356,VALID,1.07383,
2011-05-23, 01:58:04,VALID,1002.02,VALID,0,INVALID,163.647,VALID,0,VALID,25.0469,VALID,352,VALID,1.00273,
2011-05-23, 01:59:04,VALID,1002.02,VALID,0,INVALID,163.685,VALID,0,VALID,25.006,VALID,12,VALID,0.910547,
2011-05-23, 02:00:04,VALID,1001.99,VALID,0,INVALID,163.662,VALID,0,VALID,24.9866,VALID,13,VALID,0.842969,
2011-05-23, 02:01:04,VALID,1001.98,VALID,0,INVALID,163.662,VALID,0,VALID,24.9671,VALID,10,VALID,0.723437,
2011-05-23, 02:02:04,VALID,1001.97,VALID,0,INVALID,163.678,VALID,0,VALID,24.9476,VALID,5,VALID,0.93125,
2011-05-23, 02:03:04,VALID,1001.95,VALID,0,INVALID,163.662,VALID,0,VALID,24.969,VALID,351,VALID,0.828906,
2011-05-23, 02:04:04,VALID,1001.96,VALID,0,INVALID,163.67,VALID,0,VALID,24.9495,VALID,356,VALID,1.12773,
2011-05-23, 02:05:04,VALID,1001.98,VALID,0,INVALID,163.67,VALID,0,VALID,24.9282,VALID,5,VALID,0.791016,
2011-05-23, 02:06:04,VALID,1001.97,VALID,0,INVALID,163.685,VALID,0,VALID,24.8892,VALID,3,VALID,0.901953,
2011-05-23, 02:07:04,VALID,1001.94,VALID,0,INVALID,163.701,VALID,0,VALID,24.8911,VALID,357,VALID,1.19023,
2011-05-23, 02:08:04,VALID,1001.95,VALID,0,INVALID,163.662,VALID,0,VALID,24.8911,VALID,2,VALID,1.06953,
2011-05-23, 02:09:04,VALID,1001.94,VALID,0,INVALID,163.67,VALID,0,VALID,24.9106,VALID,350,VALID,1.10703,
2011-05-23, 02:10:04,VALID,1001.96,VALID,0,INVALID,163.647,VALID,0,VALID,24.9106,VALID,359,VALID,1.53789,
2011-05-23, 02:11:04,VALID,1001.97,VALID,0,INVALID,163.678,VALID,0,VALID,24.9282,VALID,1,VALID,1.34102,
2011-05-23, 02:12:04,VALID,1001.97,VALID,0,INVALID,163.678,VALID,0,VALID,24.9476,VALID,351,VALID,1.48164,
2011-05-23, 02:13:04,VALID,1001.96,VALID,0,INVALID,163.678,VALID,0,VALID,24.9671,VALID,24,VALID,0.845312,
2011-05-23, 02:14:04,VALID,1001.96,VALID,0,INVALID,163.67,VALID,0.100563,VALID,24.969,VALID,1,VALID,0.830859,
2011-05-23, 02:15:04,VALID,1001.94,VALID,0,INVALID,163.678,VALID,0,VALID,24.9282,VALID,355,VALID,1.19102,
2011-05-23, 02:16:04,VALID,1001.95,VALID,0,INVALID,163.693,VALID,0,VALID,24.9282,VALID,353,VALID,1.27852,
2011-05-23, 02:17:04,VALID,1001.98,VALID,0,INVALID,163.67,VALID,0,VALID,24.9671,VALID,352,VALID,0.936719,
2011-05-23, 02:18:04,VALID,1001.99,VALID,0,INVALID,163.632,VALID,0.100563,VALID,24.9866,VALID,348,VALID,1.6832,
2011-05-23, 02:19:04,VALID,1001.99,VALID,0,INVALID,163.678,VALID,0.100563,VALID,25.0644,VALID,352,VALID,1.67852,
2011-05-23, 02:20:04,VALID,1002.01,VALID,0,INVALID,163.662,VALID,0,VALID,25.1034,VALID,346,VALID,1.09727,
2011-05-23, 02:21:04,VALID,1002.02,VALID,0,INVALID,163.655,VALID,0.100563,VALID,25.1442,VALID,352,VALID,1.60391,
2011-05-23, 02:22:04,VALID,1002.04,VALID,0,INVALID,163.655,VALID,0,VALID,25.1813,VALID,349,VALID,0.817969,
2011-05-23, 02:23:04,VALID,1002.06,VALID,0,INVALID,163.647,VALID,0.100563,VALID,25.1813,VALID,326,VALID,0.383594,
2011-05-23, 02:24:04,VALID,1002.09,VALID,0,INVALID,163.632,VALID,0,VALID,25.2202,VALID,349,VALID,0.696484,
2011-05-23, 02:25:04,VALID,1002.09,VALID,0,INVALID,163.639,VALID,0,VALID,25.2202,VALID,351,VALID,0.898828,
2011-05-23, 02:26:04,VALID,1002.1,VALID,0,INVALID,163.655,VALID,0.100563,VALID,25.2202,VALID,352,VALID,1.08711,
2011-05-23, 02:27:04,VALID,1002.12,VALID,0,INVALID,163.678,VALID,0,VALID,25.2202,VALID,21,VALID,0.982422,
2011-05-23, 02:28:04,VALID,1002.11,VALID,0,INVALID,163.647,VALID,0.100563,VALID,25.2007,VALID,24,VALID,0.941406,
2011-05-23, 02:29:04,VALID,1002.13,VALID,0,INVALID,163.662,VALID,0,VALID,25.1637,VALID,348,VALID,0.832812,
2011-05-23, 02:30:04,VALID,1002.13,VALID,0,INVALID,163.662,VALID,0,VALID,25.1442,VALID,357,VALID,1.38281,
2011-05-23, 02:31:04,VALID,1002.16,VALID,0,INVALID,163.647,VALID,0,VALID,25.1461,VALID,353,VALID,0.860156,
2011-05-23, 02:32:04,VALID,1002.22,VALID,0,INVALID,163.662,VALID,0,VALID,25.1442,VALID,1,VALID,1.43203,
2011-05-23, 02:33:04,VALID,1002.22,VALID,0,INVALID,163.655,VALID,0,VALID,25.1851,VALID,350,VALID,0.847266,
2011-05-23, 02:34:04,VALID,1002.22,VALID,0,INVALID,163.655,VALID,0,VALID,25.1832,VALID,343,VALID,0.710938,
2011-05-23, 02:35:04,VALID,1002.24,VALID,0,INVALID,163.632,VALID,0,VALID,25.2027,VALID,340,VALID,0.525391,
2011-05-23, 02:36:04,VALID,1002.26,VALID,0,INVALID,163.67,VALID,0,VALID,25.2027,VALID,339,VALID,0.583203,
2011-05-23, 02:37:04,VALID,1002.25,VALID,0,INVALID,163.655,VALID,0,VALID,25.2221,VALID,339,VALID,0.757422,
2011-05-23, 02:38:04,VALID,1002.27,VALID,0,INVALID,163.678,VALID,0,VALID,25.2027,VALID,343,VALID,0.582812,
2011-05-23, 02:39:04,VALID,1002.27,VALID,0,INVALID,163.647,VALID,0,VALID,25.2027,VALID,1,VALID,0.130469,
2011-05-23, 02:40:04,VALID,1002.27,VALID,0,INVALID,163.662,VALID,0,VALID,25.1832,VALID,354,VALID,0.585938,
2011-05-23, 02:41:04,VALID,1002.25,VALID,0,INVALID,163.655,VALID,0,VALID,25.1832,VALID,344,VALID,0.932031,
2011-05-23, 02:42:04,VALID,1002.29,VALID,0,INVALID,163.662,VALID,0,VALID,25.1442,VALID,353,VALID,1.39492,
2011-05-23, 02:43:04,VALID,1002.29,VALID,0,INVALID,163.624,VALID,0,VALID,25.1442,VALID,334,VALID,0.685156,
2011-05-23, 02:44:04,VALID,1002.27,VALID,0,INVALID,163.632,VALID,0,VALID,25.1034,VALID,355,VALID,0.357812,
2011-05-23, 02:45:04,VALID,1002.32,VALID,0,INVALID,163.678,VALID,0,VALID,25.1053,VALID,11,VALID,0.736328,
2011-05-23, 02:46:04,VALID,1002.28,VALID,0,INVALID,163.647,VALID,0,VALID,25.0663,VALID,26,VALID,0.458594,
2011-05-23, 02:47:04,VALID,1002.27,VALID,0,INVALID,163.647,VALID,0,VALID,25.0663,VALID,14,VALID,0.590625,
2011-05-23, 02:48:04,VALID,1002.26,VALID,0,INVALID,163.67,VALID,0,VALID,25.0663,VALID,351,VALID,0.841797,
2011-05-23, 02:49:04,VALID,1002.29,VALID,0,INVALID,163.678,VALID,0,VALID,25.0663,VALID,9,VALID,0.708594,
2011-05-23, 02:50:04,VALID,1002.27,VALID,0,INVALID,163.655,VALID,0,VALID,25.0663,VALID,9,VALID,0.920703,
2011-05-23, 02:51:04,VALID,1002.28,VALID,0,INVALID,163.632,VALID,0,VALID,25.0663,VALID,8,VALID,1.01836,
2011-05-23, 02:52:04,VALID,1002.26,VALID,0,INVALID,163.655,VALID,0,VALID,25.1248,VALID,10,VALID,0.53125,
2011-05-23, 02:53:04,VALID,1002.27,VALID,0,INVALID,163.655,VALID,0,VALID,25.1248,VALID,38,VALID,0.741797,
2011-05-23, 02:54:04,VALID,1002.29,VALID,0,INVALID,163.662,VALID,0,VALID,25.1637,VALID,23,VALID,1.31836,
2011-05-23, 02:55:04,VALID,1002.27,VALID,0,INVALID,163.655,VALID,0,VALID,25.1637,VALID,358,VALID,1.10273,
2011-05-23, 02:56:04,VALID,1002.24,VALID,0,INVALID,163.639,VALID,0,VALID,25.224,VALID,353,VALID,1.30156,
2011-05-23, 02:57:04,VALID,1002.25,VALID,0,INVALID,163.632,VALID,0,VALID,25.2027,VALID,344,VALID,1.71953,
2011-05-23, 02:58:04,VALID,1002.25,VALID,0,INVALID,163.662,VALID,0,VALID,25.3195,VALID,13,VALID,1.58125,
2011-05-23, 02:59:04,VALID,1002.26,VALID,0,INVALID,163.639,VALID,0,VALID,25.3584,VALID,1,VALID,0.951563,
2011-05-23, 03:00:04,VALID,1002.23,VALID,0,INVALID,163.67,VALID,0,VALID,25.3195,VALID,357,VALID,0.68125,
2011-05-23, 03:01:04,VALID,1002.21,VALID,0,INVALID,163.662,VALID,0,VALID,25.3,VALID,21,VALID,0.758203,
2011-05-23, 03:02:04,VALID,1002.18,VALID,0,INVALID,163.632,VALID,0,VALID,25.2611,VALID,357,VALID,1.50352,
2011-05-23, 03:03:04,VALID,1002.14,VALID,0,INVALID,163.647,VALID,0,VALID,25.2416,VALID,355,VALID,0.894922,
2011-05-23, 03:04:04,VALID,1002.13,VALID,0,INVALID,163.655,VALID,0,VALID,25.2221,VALID,353,VALID,1.44883,
2011-05-23, 03:05:04,VALID,1002.11,VALID,0,INVALID,163.662,VALID,0,VALID,25.2027,VALID,352,VALID,1.38828,
2011-05-23, 03:06:04,VALID,1002.12,VALID,0,INVALID,163.67,VALID,0,VALID,25.1832,VALID,345,VALID,1.25703,
2011-05-23, 03:07:04,VALID,1002.11,VALID,0,INVALID,163.685,VALID,0,VALID,25.1637,VALID,17,VALID,1.14922,
2011-05-23, 03:08:04,VALID,1002.08,VALID,0,INVALID,163.662,VALID,0,VALID,25.1248,VALID,356,VALID,1.10352,
2011-05-23, 03:09:04,VALID,1002.07,VALID,0,INVALID,163.662,VALID,0,VALID,25.0839,VALID,354,VALID,1.59609,
2011-05-23, 03:10:04,VALID,1002.04,VALID,0,INVALID,163.67,VALID,0,VALID,25.1053,VALID,360,VALID,1.81562,
2011-05-23, 03:11:04,VALID,1002.05,VALID,0,INVALID,163.647,VALID,0,VALID,25.1229,VALID,14,VALID,1.40547,
2011-05-23, 03:12:04,VALID,1002.04,VALID,0,INVALID,163.647,VALID,0,VALID,25.1637,VALID,24,VALID,2.32734,
2011-05-23, 03:13:04,VALID,1002.01,VALID,0,INVALID,163.662,VALID,0,VALID,25.1637,VALID,358,VALID,2.28516,
2011-05-23, 03:14:04,VALID,1002.02,VALID,0,INVALID,163.632,VALID,0,VALID,25.1832,VALID,351,VALID,1.50742,
2011-05-23, 03:15:04,VALID,1002.02,VALID,0,INVALID,163.601,VALID,0,VALID,25.2027,VALID,3,VALID,1.4082,
2011-05-23, 03:16:04,VALID,1002,VALID,0,INVALID,163.685,VALID,0,VALID,25.2027,VALID,21,VALID,1.2543,
2011-05-23, 03:17:04,VALID,1002.01,VALID,0,INVALID,163.632,VALID,0,VALID,25.2027,VALID,350,VALID,1.11914,
2011-05-23, 03:18:04,VALID,1002,VALID,0,INVALID,163.662,VALID,0,VALID,25.1832,VALID,352,VALID,1.27188,
2011-05-23, 03:19:04,VALID,1002,VALID,0,INVALID,163.647,VALID,0,VALID,25.1637,VALID,5,VALID,1.11797,
2011-05-23, 03:20:04,VALID,1002.02,VALID,0,INVALID,163.632,VALID,0,VALID,25.1637,VALID,360,VALID,1.50352,
2011-05-23, 03:21:04,VALID,1002.01,VALID,0,INVALID,163.662,VALID,0,VALID,25.1832,VALID,360,VALID,0.972266,
2011-05-23, 03:22:04,VALID,1002.01,VALID,0,INVALID,163.647,VALID,0,VALID,25.1832,VALID,4,VALID,0.921484,
2011-05-23, 03:23:04,VALID,1002.04,VALID,0,INVALID,163.662,VALID,0,VALID,25.1851,VALID,6,VALID,1.75469,
2011-05-23, 03:24:04,VALID,1002.03,VALID,0,INVALID,163.655,VALID,0,VALID,25.2046,VALID,2,VALID,1.24375,
2011-05-23, 03:25:04,VALID,1002.02,VALID,0,INVALID,163.655,VALID,0,VALID,25.1832,VALID,352,VALID,1.65313,
2011-05-23, 03:26:04,VALID,1002,VALID,0,INVALID,163.678,VALID,0,VALID,25.2046,VALID,355,VALID,1.80742,
2011-05-23, 03:27:04,VALID,1001.99,VALID,0,INVALID,163.647,VALID,0,VALID,25.2027,VALID,15,VALID,1.22422,
2011-05-23, 03:28:04,VALID,1001.97,VALID,0,INVALID,163.632,VALID,0,VALID,25.2027,VALID,357,VALID,1.86992,
2011-05-23, 03:29:04,VALID,1001.95,VALID,0,INVALID,163.655,VALID,0,VALID,25.2027,VALID,358,VALID,0.876953,
2011-05-23, 03:30:04,VALID,1001.94,VALID,0,INVALID,163.662,VALID,0,VALID,25.2221,VALID,13,VALID,0.884375,
2011-05-23, 03:31:04,VALID,1001.91,VALID,0,INVALID,163.647,VALID,0,VALID,25.2221,VALID,354,VALID,1.475,
2011-05-23, 03:32:04,VALID,1001.94,VALID,0,INVALID,163.655,VALID,0,VALID,25.2416,VALID,4,VALID,1.31055,
2011-05-23, 03:33:04,VALID,1001.9,VALID,0,INVALID,163.632,VALID,0,VALID,25.2806,VALID,359,VALID,1.32852,
2011-05-23, 03:34:04,VALID,1001.89,VALID,0,INVALID,163.655,VALID,0,VALID,25.2806,VALID,28,VALID,1.06953,
2011-05-23, 03:35:04,VALID,1001.88,VALID,0,INVALID,163.647,VALID,0,VALID,25.3019,VALID,16,VALID,1.4043,
2011-05-23, 03:36:04,VALID,1001.9,VALID,0,INVALID,163.655,VALID,0,VALID,25.3,VALID,359,VALID,1.09336,
2011-05-23, 03:37:04,VALID,1001.87,VALID,0,INVALID,163.662,VALID,0,VALID,25.2806,VALID,2,VALID,0.817578,
2011-05-23, 03:38:04,VALID,1001.84,VALID,0,INVALID,163.624,VALID,0,VALID,25.2806,VALID,1,VALID,1.20469,
2011-05-23, 03:39:04,VALID,1001.86,VALID,0,INVALID,163.655,VALID,0,VALID,25.2806,VALID,17,VALID,1.16055,
2011-05-23, 03:40:04,VALID,1001.86,VALID,0,INVALID,163.647,VALID,0,VALID,25.2611,VALID,15,VALID,1.33555,
2011-05-23, 03:41:04,VALID,1001.84,VALID,0,INVALID,163.632,VALID,0,VALID,25.2611,VALID,360,VALID,1.07969,
2011-05-23, 03:42:04,VALID,1001.83,VALID,0,INVALID,163.662,VALID,0,VALID,25.2397,VALID,358,VALID,1.26641,